Location: Buckland
(65.9785°N, 161.1281°W)
Time: 08:21:28
(UTC+00:00)

Transit 4A - Pass Details

Date: 04 August 2021
Orbit: 870 x 974 km, 66.8° (Epoch: 27 September)

Event Time Altitude Azimuth Distance (km) Brightness Sun altitude
Exits shadow 11:08:51 - 211° (SSW) 2,984 10.0 -6.8°
Reaches altitude 10° 11:10:05 10° 208° (SSW) 2,528 9.6 -6.8°
Maximum altitude 11:15:39 48° 136° (SE) 1,135 8.2 -6.8°
Drops below altitude 10° 11:21:12 10° 64° (ENE) 2,534 10.7 -6.7°
Sets 11:23:46 0° 59° (ENE) 3,481 11.5 -6.7°
